OCO 2                   
1 40059U 14035A   19260.12505564 -.00000005  00000-0  89441-5 0  9994
2 40059  98.2078 199.7296 0001497  82.7549 277.3820 14.57118926277080
DELTA 2 R/B             
1 40060U 14035B   19258.40342756  .00000027  00000-0  00000-0 0  9998
2 40060  98.2091  65.1366 3063968 287.3948  41.7670  6.11237928116152